This demonstration page uses our WeatherBlox Daily Observations layout. Learn more.

Left ArrowRight Arrow

Hourly Observations for December 13, 2015

Temp ( °F °C ) Dew Point ( °F °C ) Humidity (%) Winds ( mph kmh ) Pressure ( in mb ) Visibility ( mi km ) Precip ( " mm )
12:51 am 00:51 Clear 41 5 35 1.7 79 79 NNW 12 19 29.88 1012 10 16 N/A
1:51 am 01:51 Clear 40 4.4 35 1.7 83 83 NW 14 22 29.88 1012 10 16 N/A
2:51 am 02:51 Clear 39 3.9 35 1.7 86 86 NW 15 24 29.89 1012 10 16 N/A
3:51 am 03:51 Clear 38 3.3 34 1.1 86 86 NW 18 30 29.90 1012 10 16 N/A
4:51 am 04:51 Clear 37 2.8 34 1.1 89 89 NW 23 37 29.90 1013 10 16 N/A
5:51 am 05:51 Clear 38 3.3 33 0.6 83 83 NW 18 30 29.92 1013 10 16 N/A
6:51 am 06:51 Clear 36 2.2 33 0.6 89 89 NW 17 28 29.92 1013 10 16 N/A
7:51 am 07:51 Sunny 40 4.4 33 0.6 77 77 NNW 16 26 29.94 1014 10 16 N/A
8:51 am 08:51 Sunny 45 7.2 29 -1.7 54 54 NNW 16 26 29.96 1014 10 16 N/A
9:51 am 09:51 Sunny 48 8.9 27 -2.8 44 44 NW 13 20 29.98 1015 10 16 N/A
10:51 am 10:51 Sunny 49 9.4 28 -2.2 44 44 NW 18 30 29.97 1015 10 16 N/A
11:51 am 11:51 Sunny 51 10.6 29 -1.7 43 43 NW 20 31 29.96 1014 10 16 N/A
12:51 pm 12:51 Sunny 53 11.7 29 -1.7 40 40 NW 18 30 29.93 1014 10 16 N/A
1:51 pm 13:51 Sunny 54 12.2 27 -2.8 35 35 NNW 20 31 29.90 1013 10 16 N/A
2:51 pm 14:51 Sunny 54 12.2 27 -2.8 35 35 NW 18 30 29.89 1012 10 16 N/A
3:51 pm 15:51 Sunny 54 12.2 25 -3.9 33 33 NW 16 26 29.90 1012 10 16 N/A
4:51 pm 16:51 Sunny 51 10.6 27 -2.8 39 39 NW 15 24 29.91 1013 10 16 N/A
5:51 pm 17:51 Clear 48 8.9 29 -1.7 48 48 NW 13 20 29.93 1014 10 16 N/A
6:51 pm 18:51 Clear 46 7.8 28 -2.2 50 50 NW 10 17 29.94 1014 10 16 N/A
7:51 pm 19:51 Clear 45 7.2 29 -1.7 54 54 NW 5 7 29.94 1014 10 16 N/A
8:51 pm 20:51 Clear 40 4.4 30 -1.1 68 68 WSW 7 11 29.95 1014 10 16 N/A
9:51 pm 21:51 Clear 38 3.3 31 -0.6 76 76 E 8 13 29.95 1014 10 16 N/A
10:51 pm 22:51 Clear 35 1.7 30 -1.1 82 82 E 6 9 29.95 1014 10 16 N/A
11:51 pm 23:51 Clear 35 1.7 30 -1.1 82 82 N N/A 29.94 1014 10 16 N/A

Powered by AerisWeather